2022-058A (52785 NORAD) Tracking and Keplerian Element Data

This shows tracking and keplerian element data for the satellite.

Feedback or suggestion? Click here.




ElementValue
Catalog52785
Name2022-058A
Epoch Orbit595
Epoch Day193.14378638
Epoch Year2022
RAAN74.6596
Inclination49.9986
Eccentricity0.0012077
Argument of Perigee79.4742
Mean Anonmoly280.7565
Mean Motion14.86467504
Decay Rate1.373E-05
L11 52785U 22058A 22193.14378638 .00001373 00000+0 17976-3 0 9997
L22 52785 49.9986 74.6596 0012077 79.4742 280.7565 14.86467504 5958

Live tracking and technical data element details for 2022-058A (NORAD 52785). 2022-058A can be tracked NOW for your location showing map with azimuth and elevation plus other details from your city location.

Track the satellite on the map from your city or location and see movement details for azimuth, elevation, latitude, longitude, range, height, and movement on the map or in text.







IsCatalogInMostPopularTable: catalog: 52785, numindb: 3
Update: records affected: 1



GetName: 52785 2022-058A

Hit Count: updated at: Sun, 14 Aug 2022 01:20:55 GMT